#timestamp,LO_Frequency,Hit,StdDev 
1693458015.2,286047007.6,Y
1693458035.1,286047005.8,P
1693458036.0,286047005.8,N
1693458055.8,286047006.0,N
1693458075.6,286047005.0,N
1693458095.5,286047005.2,Y
1693458115.3,286047000.7,P
1693458135.1,286047000.9,N
1693458155.9,286047000.9,N
1693458175.7,286046999.9,N
1693458195.5,286047002.6,N
1693458215.4,286046999.9,N
1693458235.2,286047002.8,N
1693458255.0,286046999.8,N
1693458255.9,286046999.8,N
1693458275.8,286047000.2,N
1693458295.6,286047000.9,N
1693458315.4,286047000.1,N
1693458335.3,286047000.6,N
1693458355.1,286047001.2,N
1693458375.8,286046999.9,N
1693458395.7,286047000.0,N
1693458415.5,286046999.9,N
1693458435.3,286047000.4,N
1693458455.2,286046999.7,N
1693458475.0,286047002.2,N
1693458475.9,286047002.2,N
1693458495.7,286047002.1,N
1693458515.6,286047008.9,Y
1693458535.4,286047003.7,P
1693458555.2,286047003.9,N
1693458575.1,286047001.8,N
1693458576.0,286047001.8,N
1693458595.8,286047002.2,N
1693458615.7,286047000.2,N
1693458635.5,286047000.3,N
1693458655.3,286047000.1,N
1693458675.1,286047000.4,N
1693458695.9,286047000.7,N
1693458715.7,286046999.9,N
1693458735.5,286047000.6,N
1693458755.4,286047000.6,N
1693458775.2,286047001.1,N
1693458795.0,286047000.5,N
1693458795.9,286047000.5,N
1693458815.8,286047002.3,N
1693458835.6,286047000.1,N
1693458855.4,286046999.7,N
1693458875.3,286046999.8,N
1693458895.1,286047001.8,N
1693458915.9,286047015.2,Y
1693458935.7,286047006.1,P
1693458955.5,286046999.8,N
1693458975.4,286046999.3,N
1693458995.2,286046996.8,N
1693459015.0,286046995.0,N
1693459015.9,286046995.0,N
1693459035.8,286046995.0,N
1693459055.6,286046995.6,N
1693459075.4,286046996.2,N
1693459095.3,286046994.2,N
1693459115.1,286046992.0,N
1693459116.0,286046992.0,N
1693459135.8,286046992.9,N
1693459155.7,286046991.8,N
1693459175.5,286046992.2,N
1693459195.3,286046992.1,N
1693459215.2,286046992.1,N
1693459235.9,286046993.0,N
1693459255.7,286046992.6,N
1693459275.6,286046991.7,N
1693459295.4,286046994.4,N
1693459315.2,286046991.7,N
1693459335.1,286046991.9,N
1693459336.0,286046991.9,N
1693459355.8,286046992.9,N
1693459375.6,286046993.0,N
1693459395.5,286046990.4,N
1693459415.3,286046991.7,N
1693459435.1,286046992.7,N
1693459455.9,286046992.2,N
1693459475.7,286046994.8,N
1693459495.5,286046991.7,Y
1693459515.4,286047001.1,P
1693459535.2,286047000.3,N
1693459555.0,286047000.5,N
1693459555.9,286047000.5,N
1693459575.8,286046998.1,N
1693459595.6,286047000.9,N
1693459615.4,286047000.8,N
1693459635.3,286046999.5,N
1693459655.1,286046999.3,N
1693459656.0,286046999.3,N
1693459675.8,286047000.9,N
1693459695.7,286047000.7,N
1693459715.5,286047001.1,N
1693459735.3,286047000.2,N
1693459755.2,286047000.2,N
1693459775.9,286047001.0,N
1693459795.7,286046999.8,N
1693459815.6,286047000.3,N
1693459835.4,286047002.4,N
1693459855.2,286047002.8,N
1693459875.1,286047002.6,N
1693459876.0,286047002.6,N
1693459895.8,286046999.7,N
1693459915.6,286047002.7,N
1693459935.5,286046999.7,N
1693459955.3,286047002.8,N
1693459975.1,286047000.6,N
1693459995.9,286046999.9,N
1693460015.7,286046999.8,N
1693460035.5,286047002.6,N
1693460055.4,286047001.4,N
1693460075.2,286047004.0,Y
1693460095.0,286047002.2,P
1693460095.9,286047002.2,P
1693460115.8,286047002.8,P
1693460135.6,286046999.7,N
1693460155.4,286047002.3,N
1693460175.3,286047002.3,N
1693460195.1,286046999.8,N
1693460215.8,286047004.3,Y
1693460235.7,286047002.7,P
1693460255.5,286047003.2,P
1693460275.3,286047006.0,P
1693460295.2,286047003.9,N
1693460315.0,286047002.2,N
1693460315.9,286047002.2,N
1693460335.7,286047002.1,N
1693460355.6,286047002.7,N
1693460375.4,286047002.5,N
1693460395.2,286047001.5,N
1693460415.1,286047001.3,N
1693460416.0,286047001.3,N
1693460435.8,286047003.9,Y
1693460455.6,286046999.9,P
1693460475.5,286047000.1,N
1693460495.3,286047002.8,N
1693460515.1,286046999.7,N
1693460535.9,286047002.3,N
1693460555.7,286047002.7,N
1693460575.5,286047002.1,N
1693460595.4,286047001.5,N
1693460615.2,286047000.5,N
1693460635.0,286047000.0,N
1693460635.9,286047000.0,N
1693460655.8,286046999.7,N
1693460675.6,286047000.4,N
1693460695.4,286046999.7,N
1693460715.3,286047002.8,N
1693460735.1,286047002.4,N
1693460755.9,286047004.4,Y
1693460775.7,286047000.1,P
1693460795.5,286046999.9,N
1693460815.4,286047001.2,N
1693460835.2,286047000.0,N
1693460855.0,286046999.7,N
1693460855.9,286046999.7,N
1693460875.8,286047002.3,Y
1693460895.6,286047002.7,P
1693460915.4,286047000.3,N
1693460935.3,286046999.8,N
1693460955.1,286047002.3,N
1693460956.0,286047011.9,Y
1693460975.8,286047001.0,P
1693460995.7,286047000.7,P
1693461015.5,286047001.2,P
1693461035.3,286046999.9,N
1693461055.2,286047000.6,N
1693461075.9,286047000.5,N
1693461095.7,286047001.6,Y
1693461115.6,286047000.2,P
1693461135.4,286046998.3,P
1693461155.2,286046996.9,P
1693461175.1,286046997.2,N
1693461176.0,286046997.2,N
1693461195.8,286046994.9,Y
1693461215.6,286046999.6,P
1693461235.5,286046996.9,P
1693461255.3,286046996.8,N
1693461275.1,286046999.2,N
1693461295.9,286046999.6,N
1693461315.7,286046998.3,N
1693461335.5,286047001.1,N
1693461355.4,286046999.5,N
1693461375.2,286046998.9,N
1693461395.0,286046999.4,N
1693461395.9,286046999.4,N
1693461415.8,286046998.9,N
1693461435.6,286046999.6,N
1693461455.4,286046997.1,N
1693461475.3,286046996.6,Y
1693461495.1,286046998.5,P
1693461515.8,286046996.5,P
1693461535.7,286046998.6,N
1693461555.5,286046999.2,N
1693461575.3,286046998.7,N
1693461595.2,286046999.5,N
